IBS1832 LEMD-LIRN

Flight info

Callsign IBS1832
Flight time N/A
Altitude 34000
Route NANDO M871 MABUX T257 LASPO M871 PTC N851 MHN DCT MORSS DCT BAVON DCT ORKUM DCT ELSAG DCT ALG DCT ROTUN DCT PNZ
Aircraft A21N/M-SDE3FGHIJ1RWXY/SDE2E3FGHIJ1RWXY

Departure

Time N/A
Airport Adolfo Suárez Madrid–Barajas Airport (LEMD)

Arrival

Time 2026-04-28 17:42
Airport Naples International Airport (LIRN)
Time Latitude Longitude Altitude Speed Heading
2026-04-28 15:59 39.44717 -0.91723 33954 ft 456 kts 121°
2026-04-28 15:59 39.43148 -0.88152 33967 ft 455 kts 121°
2026-04-28 16:00 39.40030 -0.81033 33957 ft 454 kts 121°
2026-04-28 16:00 39.36919 -0.73998 33954 ft 452 kts 121°
2026-04-28 16:01 39.33792 -0.66946 33946 ft 450 kts 121°
2026-04-28 16:02 39.29234 -0.55638 33941 ft 449 kts 108°
2026-04-28 16:02 39.28580 -0.51686 33943 ft 449 kts 96°
2026-04-28 16:02 39.28725 -0.43626 33944 ft 455 kts 85°
2026-04-28 16:03 39.29248 -0.35422 33997 ft 459 kts 86°
2026-04-28 16:03 39.29699 -0.27201 33999 ft 459 kts 86°
2026-04-28 16:04 39.30120 -0.19005 34000 ft 459 kts 86°
2026-04-28 16:04 39.30471 -0.12159 34001 ft 459 kts 86°
2026-04-28 16:05 39.30959 -0.02592 34002 ft 459 kts 86°
2026-04-28 16:05 39.31368 0.05635 34001 ft 459 kts 86°
2026-04-28 16:06 39.31770 0.13878 34001 ft 459 kts 86°
2026-04-28 16:06 39.32166 0.22067 34005 ft 459 kts 86°
2026-04-28 16:07 39.32558 0.30302 34002 ft 459 kts 86°
2026-04-28 16:08 39.33132 0.42607 34002 ft 459 kts 87°
2026-04-28 16:08 39.33507 0.50842 34001 ft 459 kts 87°
2026-04-28 16:09 39.34060 0.63159 34001 ft 459 kts 87°
2026-04-28 16:10 39.34597 0.75525 34002 ft 459 kts 87°
2026-04-28 16:10 39.35125 0.87838 34002 ft 459 kts 87°
2026-04-28 16:11 39.35753 1.02936 34003 ft 459 kts 87°
2026-04-28 16:12 39.36253 1.15288 34001 ft 459 kts 87°
2026-04-28 16:13 39.36736 1.27596 34002 ft 459 kts 87°
2026-04-28 16:14 39.37364 1.44078 34002 ft 459 kts 88°
2026-04-28 16:15 39.37968 1.60559 34001 ft 459 kts 88°
2026-04-28 16:15 39.38260 1.68753 34002 ft 459 kts 88°
2026-04-28 16:16 39.38688 1.81138 33998 ft 459 kts 88°
2026-04-28 16:17 39.39105 1.93459 34003 ft 459 kts 88°
2026-04-28 16:17 39.39372 2.01712 34002 ft 459 kts 88°
2026-04-28 16:18 39.39635 2.09982 34002 ft 459 kts 88°
2026-04-28 16:18 39.39895 2.18180 34001 ft 459 kts 88°
2026-04-28 16:19 39.40146 2.26414 34002 ft 459 kts 88°
2026-04-28 16:19 39.40394 2.34669 34001 ft 459 kts 88°
2026-04-28 16:20 39.40634 2.42919 34001 ft 459 kts 88°
2026-04-28 16:20 39.40868 2.51136 34003 ft 459 kts 88°
2026-04-28 16:21 39.41095 2.59348 34003 ft 459 kts 88°
2026-04-28 16:21 39.41318 2.67611 33999 ft 459 kts 88°
2026-04-28 16:22 39.41538 2.75871 34002 ft 459 kts 88°
2026-04-28 16:22 39.41749 2.84095 34001 ft 459 kts 88°
2026-04-28 16:23 39.41955 2.92347 34001 ft 459 kts 88°
2026-04-28 16:23 39.42153 3.00582 34001 ft 459 kts 88°
2026-04-28 16:24 39.42346 3.08833 34001 ft 459 kts 88°
2026-04-28 16:24 39.42536 3.17066 34001 ft 459 kts 89°
2026-04-28 16:25 39.43182 3.25275 33995 ft 459 kts 75°
2026-04-28 16:25 39.44283 3.29100 33998 ft 459 kts 63°
2026-04-28 16:25 39.45862 3.32710 34006 ft 459 kts 59°
2026-04-28 16:26 39.49200 3.39783 34002 ft 459 kts 59°
2026-04-28 16:26 39.52482 3.46883 34000 ft 459 kts 59°
2026-04-28 16:27 39.55746 3.53984 34002 ft 459 kts 59°
2026-04-28 16:28 39.60614 3.64645 34002 ft 459 kts 59°
2026-04-28 16:28 39.63868 3.71796 34002 ft 459 kts 59°
2026-04-28 16:29 39.68745 3.82533 34002 ft 459 kts 59°
2026-04-28 16:30 39.73591 3.93235 34001 ft 459 kts 60°
2026-04-28 16:30 39.76826 4.00405 33998 ft 459 kts 60°
2026-04-28 16:31 39.80039 4.07553 34001 ft 459 kts 60°
2026-04-28 16:31 39.83247 4.14702 33999 ft 459 kts 60°
2026-04-28 16:32 39.86316 4.21999 33997 ft 459 kts 68°
2026-04-28 16:32 39.88953 4.33950 34001 ft 459 kts 75°
2026-04-28 16:33 39.90320 4.40654 34001 ft 459 kts 75°
2026-04-28 16:33 39.92251 4.50024 34002 ft 459 kts 75°
2026-04-28 16:34 39.93904 4.58080 34001 ft 459 kts 75°
2026-04-28 16:34 39.95548 4.66078 34003 ft 459 kts 75°
2026-04-28 16:35 39.97364 4.74074 34003 ft 459 kts 73°
2026-04-28 16:35 39.99194 4.82059 34002 ft 459 kts 73°
2026-04-28 16:36 40.01003 4.90006 34000 ft 459 kts 73°
2026-04-28 16:36 40.02822 4.98018 34002 ft 459 kts 73°
2026-04-28 16:37 40.04636 5.06040 34003 ft 459 kts 74°
2026-04-28 16:38 40.07325 5.17986 34002 ft 459 kts 74°
2026-04-28 16:38 40.09123 5.26011 34002 ft 459 kts 74°
2026-04-28 16:39 40.10903 5.33975 34003 ft 459 kts 74°
2026-04-28 16:39 40.12689 5.42006 34003 ft 459 kts 74°
2026-04-28 16:40 40.14469 5.50043 34002 ft 459 kts 74°
2026-04-28 16:40 40.16232 5.58022 34001 ft 459 kts 74°
2026-04-28 16:41 40.17996 5.66059 34002 ft 459 kts 74°
2026-04-28 16:41 40.19744 5.74039 34000 ft 459 kts 74°
2026-04-28 16:42 40.21491 5.82086 34002 ft 459 kts 74°
2026-04-28 16:42 40.23244 5.90140 34003 ft 459 kts 74°
2026-04-28 16:43 40.24983 5.98148 34001 ft 459 kts 74°
2026-04-28 16:43 40.26727 6.06207 34003 ft 459 kts 74°
2026-04-28 16:44 40.28449 6.14274 34001 ft 459 kts 75°
2026-04-28 16:44 40.30164 6.22290 34003 ft 459 kts 74°
2026-04-28 16:45 40.31890 6.30355 34002 ft 459 kts 75°
2026-04-28 16:45 40.33592 6.38433 34002 ft 459 kts 75°
2026-04-28 16:46 40.35305 6.46457 34003 ft 459 kts 75°
2026-04-28 16:46 40.37025 6.54524 33997 ft 459 kts 75°
2026-04-28 16:47 40.38744 6.62612 34002 ft 459 kts 75°
2026-04-28 16:47 40.40433 6.70644 34000 ft 459 kts 75°
2026-04-28 16:48 40.42121 6.78743 34002 ft 459 kts 75°
2026-04-28 16:48 40.43779 6.86810 34002 ft 459 kts 75°
2026-04-28 16:49 40.45462 6.94918 34001 ft 459 kts 75°
2026-04-28 16:49 40.47154 7.03022 34002 ft 459 kts 75°
2026-04-28 16:50 40.48807 7.11082 34003 ft 459 kts 75°
2026-04-28 16:50 40.50468 7.19188 34001 ft 459 kts 75°
2026-04-28 16:51 40.52132 7.27318 34003 ft 459 kts 75°
2026-04-28 16:51 40.53780 7.35381 33999 ft 459 kts 75°
2026-04-28 16:52 40.55429 7.43518 34000 ft 459 kts 75°
2026-04-28 16:52 40.56697 7.51692 34005 ft 459 kts 83°
2026-04-28 16:53 40.57416 7.60043 34002 ft 459 kts 84°
2026-04-28 16:53 40.58127 7.68406 34001 ft 459 kts 84°
2026-04-28 16:54 40.58835 7.76718 34002 ft 459 kts 84°
2026-04-28 16:54 40.59539 7.85061 34002 ft 459 kts 84°
2026-04-28 16:55 40.60247 7.93421 34003 ft 459 kts 84°
2026-04-28 16:55 40.60946 8.01729 34000 ft 459 kts 84°
2026-04-28 16:56 40.61643 8.10112 34001 ft 459 kts 84°
2026-04-28 16:56 40.62326 8.18409 34000 ft 459 kts 84°
2026-04-28 16:57 40.63005 8.26768 33999 ft 459 kts 84°
2026-04-28 16:57 40.63671 8.35149 34001 ft 459 kts 84°
2026-04-28 16:58 40.64323 8.43462 34002 ft 459 kts 84°
2026-04-28 16:58 40.64975 8.51828 34002 ft 459 kts 84°
2026-04-28 16:59 40.65516 8.58798 34003 ft 459 kts 84°
2026-04-28 16:59 40.66165 8.67184 34001 ft 459 kts 84°
2026-04-28 17:00 40.66810 8.75489 34003 ft 459 kts 84°
2026-04-28 17:00 40.67452 8.83895 34001 ft 459 kts 84°
2026-04-28 17:01 40.68078 8.92230 34002 ft 459 kts 85°
2026-04-28 17:01 40.68702 9.00619 34002 ft 459 kts 84°
2026-04-28 17:02 40.69317 9.08948 34003 ft 459 kts 85°
2026-04-28 17:02 40.69929 9.17342 34002 ft 459 kts 85°
2026-04-28 17:03 40.70824 9.29853 33998 ft 459 kts 85°
2026-04-28 17:03 40.71424 9.38259 34003 ft 459 kts 85°
2026-04-28 17:04 40.72303 9.50827 34002 ft 459 kts 85°
2026-04-28 17:05 40.73168 9.63349 34002 ft 459 kts 85°
2026-04-28 17:06 40.74023 9.75947 34002 ft 459 kts 85°
2026-04-28 17:06 40.74859 9.88493 34003 ft 459 kts 85°
2026-04-28 17:07 40.75403 9.96893 34000 ft 459 kts 85°
2026-04-28 17:07 40.75924 10.05292 34001 ft 459 kts 85°
2026-04-28 17:08 40.76454 10.13636 34001 ft 459 kts 85°
2026-04-28 17:08 40.77008 10.22043 34002 ft 459 kts 85°
2026-04-28 17:09 40.77543 10.30442 34002 ft 459 kts 85°
2026-04-28 17:09 40.78071 10.38853 34002 ft 459 kts 85°
2026-04-28 17:10 40.78590 10.47201 34001 ft 459 kts 85°
2026-04-28 17:10 40.79104 10.55617 34002 ft 459 kts 85°
2026-04-28 17:11 40.79605 10.63964 34001 ft 459 kts 86°
2026-04-28 17:11 40.80104 10.72372 34007 ft 459 kts 86°
2026-04-28 17:12 40.80597 10.80779 34004 ft 459 kts 86°
2026-04-28 17:12 40.81078 10.89140 34002 ft 459 kts 86°
2026-04-28 17:13 40.81557 10.97515 34002 ft 459 kts 86°
2026-04-28 17:13 40.82033 11.05939 34001 ft 459 kts 86°
2026-04-28 17:14 40.82481 11.14306 34002 ft 459 kts 86°
2026-04-28 17:14 40.82950 11.22732 34003 ft 459 kts 86°
2026-04-28 17:15 40.83409 11.31105 34002 ft 459 kts 86°
2026-04-28 17:15 40.83861 11.39527 34002 ft 459 kts 86°
2026-04-28 17:16 40.84305 11.47938 34001 ft 459 kts 86°
2026-04-28 17:16 40.84731 11.56303 33999 ft 459 kts 86°
2026-04-28 17:17 40.85157 11.64740 34001 ft 459 kts 86°
2026-04-28 17:17 40.85588 11.73111 34002 ft 459 kts 86°
2026-04-28 17:18 40.86005 11.81534 34003 ft 459 kts 86°
2026-04-28 17:18 40.86422 11.89911 34002 ft 459 kts 86°
2026-04-28 17:19 40.86832 11.98337 34001 ft 459 kts 86°
2026-04-28 17:19 40.87231 12.06763 34000 ft 459 kts 86°
2026-04-28 17:20 40.87559 12.13770 34001 ft 459 kts 86°
2026-04-28 17:20 40.88004 12.23578 34002 ft 459 kts 87°
2026-04-28 17:21 40.88372 12.32012 34001 ft 459 kts 87°
2026-04-28 17:22 40.88958 12.44624 34002 ft 459 kts 86°
2026-04-28 17:22 40.89350 12.53050 34001 ft 459 kts 87°
2026-04-28 17:23 40.89897 12.65586 33031 ft 457 kts 87°
2026-04-28 17:23 40.90073 12.69861 31721 ft 471 kts 87°
2026-04-28 17:23 40.90252 12.74218 30582 ft 477 kts 87°
2026-04-28 17:24 40.90439 12.78608 29568 ft 479 kts 87°
2026-04-28 17:24 40.90623 12.83015 28514 ft 482 kts 87°
2026-04-28 17:24 40.90807 12.87446 27429 ft 484 kts 87°
2026-04-28 17:24 40.90988 12.91908 26309 ft 486 kts 88°
2026-04-28 17:25 40.90883 12.96349 25362 ft 483 kts 98°
2026-04-28 17:25 40.89249 13.04841 23830 ft 471 kts 106°
2026-04-28 17:25 40.88348 13.08931 23071 ft 466 kts 107°
2026-04-28 17:26 40.87452 13.13022 22341 ft 461 kts 106°
2026-04-28 17:26 40.86572 13.17072 21591 ft 456 kts 106°
2026-04-28 17:26 40.85706 13.21077 20830 ft 451 kts 106°
2026-04-28 17:26 40.84853 13.25032 20111 ft 446 kts 106°
2026-04-28 17:27 40.84005 13.28957 19355 ft 441 kts 106°
2026-04-28 17:27 40.83166 13.32834 18605 ft 436 kts 106°
2026-04-28 17:27 40.82329 13.36682 17888 ft 431 kts 106°
2026-04-28 17:27 40.81820 13.40518 17459 ft 420 kts 92°
2026-04-28 17:28 40.82118 13.44228 17160 ft 406 kts 76°
2026-04-28 17:28 40.83943 13.51259 16645 ft 402 kts 70°
2026-04-28 17:28 40.84879 13.54728 16394 ft 400 kts 71°
2026-04-28 17:29 40.85780 13.58162 16142 ft 399 kts 71°
2026-04-28 17:29 40.86670 13.61627 15893 ft 398 kts 72°
2026-04-28 17:29 40.87545 13.65100 15641 ft 396 kts 72°
2026-04-28 17:30 40.89307 13.71975 15138 ft 393 kts 71°
2026-04-28 17:30 40.90978 13.78569 14655 ft 390 kts 72°
2026-04-28 17:30 40.91832 13.81928 14406 ft 389 kts 71°
2026-04-28 17:31 40.92696 13.85317 14156 ft 388 kts 71°
2026-04-28 17:31 40.94396 13.92052 13658 ft 385 kts 72°
2026-04-28 17:32 40.96082 13.98752 13156 ft 382 kts 72°
2026-04-28 17:32 40.96922 14.02082 12905 ft 381 kts 72°
2026-04-28 17:32 40.97758 14.05405 12653 ft 379 kts 72°
2026-04-28 17:32 40.98570 14.08684 12398 ft 378 kts 72°
2026-04-28 17:33 40.99385 14.11987 12163 ft 377 kts 72°
2026-04-28 17:33 41.00210 14.15287 11912 ft 375 kts 72°
2026-04-28 17:33 41.01024 14.18528 11709 ft 365 kts 72°
2026-04-28 17:33 41.01557 14.20645 11618 ft 355 kts 72°
2026-04-28 17:34 41.02566 14.24665 11426 ft 338 kts 72°
2026-04-28 17:34 41.03291 14.27573 11283 ft 326 kts 72°
2026-04-28 17:34 41.03990 14.30375 11141 ft 314 kts 72°
2026-04-28 17:34 41.04661 14.33045 11004 ft 303 kts 72°
2026-04-28 17:35 41.05327 14.35669 10691 ft 298 kts 71°
2026-04-28 17:35 41.05990 14.38277 10228 ft 299 kts 71°
2026-04-28 17:35 41.06658 14.40906 9654 ft 304 kts 72°
2026-04-28 17:35 41.07347 14.43623 8801 ft 318 kts 71°
2026-04-28 17:36 41.08075 14.46454 7875 ft 332 kts 71°
2026-04-28 17:36 41.08703 14.49458 6922 ft 344 kts 83°
2026-04-28 17:36 41.08615 14.52632 5893 ft 346 kts 103°
2026-04-28 17:36 41.07709 14.55508 5136 ft 338 kts 125°
2026-04-28 17:37 41.06184 14.57670 5337 ft 298 kts 143°
2026-04-28 17:37 41.04446 14.58967 5994 ft 285 kts 164°
2026-04-28 17:37 41.02546 14.59114 6552 ft 256 kts 195°
2026-04-28 17:37 41.01127 14.58079 6826 ft 231 kts 230°
2026-04-28 17:38 41.00391 14.56203 6950 ft 232 kts 252°
2026-04-28 17:38 40.99880 14.54215 6961 ft 221 kts 249°
2026-04-28 17:38 40.99297 14.52409 6939 ft 210 kts 244°
2026-04-28 17:38 40.98631 14.50685 6935 ft 207 kts 240°
2026-04-28 17:39 40.97910 14.49085 6629 ft 203 kts 239°
2026-04-28 17:39 40.97193 14.47463 6214 ft 204 kts 239°
2026-04-28 17:39 40.95708 14.44234 5409 ft 209 kts 238°
2026-04-28 17:40 40.94900 14.42504 4508 ft 234 kts 238°
2026-04-28 17:40 40.93985 14.40553 3506 ft 261 kts 238°
2026-04-28 17:40 40.93009 14.38471 2641 ft 277 kts 238°
2026-04-28 17:40 40.91968 14.36220 1625 ft 292 kts 239°
2026-04-28 17:41 40.90952 14.33955 1012 ft 276 kts 236°
2026-04-28 17:41 40.89945 14.32022 814 ft 237 kts 239°
2026-04-28 17:41 40.89257 14.30418 364 ft 178 kts 237°
2026-04-28 17:41 40.88662 14.29216 269 ft 108 kts 238°
2026-04-28 17:42 40.88485 14.28836 278 ft 33 kts 238°
2026-04-28 17:42 40.88405 14.28665 282 ft 33 kts 238°
2026-04-28 17:42 40.88206 14.28406 291 ft 0 kts 198°
2026-04-28 17:42 40.88183 14.28392 294 ft 11 kts 205°
2026-04-28 17:43 40.88104 14.28354 294 ft 13 kts 200°
2026-04-28 17:43 40.88059 14.28369 294 ft 6 kts 97°
2026-04-28 17:43 40.88051 14.28455 291 ft 16 kts 97°
2026-04-28 17:43 40.88007 14.28527 292 ft 10 kts 220°
2026-04-28 17:44 40.87947 14.28464 292 ft 12 kts 232°
2026-04-28 17:44 40.87920 14.28413 296 ft 0 kts 231°
2026-04-28 17:44 40.87909 14.28407 295 ft 8 kts 189°
2026-04-28 17:44 40.87858 14.28409 296 ft 5 kts 180°
2026-04-28 17:45 40.87856 14.28409 295 ft 0 kts 181°